Location: Boca do Mato
(22.9085°S, 43.2930°W)
Time: 22:03:55
(UTC+00:00)

NOSS 3-1 (C) - Pass Details

Date: 14 July 2020
Orbit: 752 x 1456 km, 63.4° (Epoch: 15 June)

Event Time Altitude Azimuth Distance (km) Brightness Sun altitude
Exits shadow 08:52:25 - 208° (SSW) 3,301 5.8 -9.7°
Reaches altitude 10° 08:54:29 10° 209° (SSW) 2,500 5.2 -9.2°
Maximum altitude 09:00:08 81° 295° (WNW) 802 3.1 -8.0°
Drops below altitude 10° 09:05:15 10° 22° (NNE) 2,272 6.1 -6.9°
Sets 09:07:33 0° 23° (NNE) 3,185 6.9 -6.4°
